Regional Weather Roundup
Issued by NWS Little Rock, AR

Home | Current Version | Previous Version | Graphics & Text | Print | Product List | Glossary On
Versions: 1 2 3 4 5 6 7 8 9 10 11 12 13 14 15 16 17 18 19 20 21 22 23 24 25 26 27 28 29 30 31 32 33 34 35 36 37 38 39 40 41 42 43 44 45 46 47 48 49 50
000
ASUS44 KLZK 101605
RWRLZK

WEATHER ROUNDUP FOR ARKANSAS
NATIONAL WEATHER SERVICE LITTLE ROCK AR
1000 AM CST SAT DEC 10 2016

NOTE: "FAIR" INDICATES FEW OR NO CLOUDS BELOW 12,000 FEET WITH NO
SIGNIFICANT WEATHER AND/OR OBSTRUCTIONS TO VISIBILITY.

ARZ001-003-010-029-101700-
NORTHWEST ARKANSAS

CITY           SKY/WX    TMP DP  RH WIND       PRES   REMARKS
FAYETTEVILLE   SUNNY     41  15  35 S8        30.43S
FORT SMITH     SUNNY     39  22  50 E10       30.49S
HARRISON       CLOUDY    33  21  61 SE9       30.45S WCI  25
BENTONVILLE    CLOUDY    39  12  33 S9        30.42S
ROGERS         PTSUNNY   41  14  33 S9        30.42F
SILOAM SPGS    CLOUDY    37  14  38 S8        30.42S
HIGHFILL       CLOUDY    39  15  37 S9        30.41F
SPRINGDALE     MOSUNNY   41  14  33 S9        30.43F
$$

ARZ004-005-016-101700-
NORTH CENTRAL ARKANSAS

CITY           SKY/WX    TMP DP  RH WIND       PRES   REMARKS
BATESVILLE     CLOUDY    30  21  69 E6        30.58S WCI  24
FLIPPIN        CLOUDY    32  19  59 SE6       30.49R WCI  26
MTN HOME       CLOUDY    31  19  61 S7        30.50S WCI  24
$$

ARZ040-041-101700-
WEST CENTRAL ARKANSAS

CITY           SKY/WX    TMP DP  RH WIND       PRES   REMARKS
MENA           CLOUDY    39  21  48 CALM      30.50S
MOUNT IDA      CLOUDY    37  22  54 SE6       30.50R
$$

ARZ009-017-025-026-028-101700-
NORTHEAST ARKANSAS

CITY           SKY/WX    TMP DP  RH WIND       PRES   REMARKS
CORNING        FAIR      32  25  74 SE6       30.60F WCI  26
JONESBORO      SUNNY     31  24  75 SE8       30.60R WCI  23
NEWPORT        SUNNY     34  26  72 SE7       30.60R WCI  28
WALNUT RIDGE   SUNNY     32  21  64 SE6       30.59S WCI  26
BLYTHEVILLE    SUNNY     35  20  54 SE6       30.61S WCI  30
$$

ARZ022-023-033-042-044-101700-
CENTRAL ARKANSAS

CITY           SKY/WX    TMP DP  RH WIND       PRES   REMARKS
LITTLE ROCK    PTSUNNY   32  25  75 S7        30.58S WCI  26
N LITTLE ROCK    N/A     32  24  72 S6        30.60S WCI  27
JACKSONVILLE   CLOUDY    33  24  68 VRB5      30.57R WCI  29
SEARCY         CLOUDY    33  26  75 S7        30.61R WCI  27
HOT SPRINGS    CLOUDY    35  23  61 E6        30.55S WCI  30
RUSSELLVILLE   CLOUDY    33  23  66 E7        30.54R WCI  27
CLINTON        CLOUDY    32  25  74 CALM      30.56S
$$

ARZ036-101700-
EAST ARKANSAS

CITY           SKY/WX    TMP DP  RH WIND       PRES   REMARKS
WEST MEMPHIS   SUNNY     34  20  56 SE8       30.58F WCI  27
$$

ARZ050-053-066-070-073-101700-
SOUTHWEST ARKANSAS

CITY           SKY/WX    TMP DP  RH WIND       PRES   REMARKS
ARKADELPHIA    CLOUDY    36  25  64 SE6       30.58S
CAMDEN         MIX PCPN  41  19  42 SE8       30.58S
TEXARKANA      CLOUDY    38  23  55 SE8       30.55S
EL DORADO      SUNNY     38  23  55 SE8       30.57R
DE QUEEN       CLOUDY    38  27  64 E8        30.53S
$$

ARZ056-057-069-101700-
SOUTHEAST ARKANSAS

CITY           SKY/WX    TMP DP  RH WIND       PRES   REMARKS
PINE BLUFF     FLURRIES  33  26  75 E7        30.59S WCI  27
STUTTGART      CLOUDY    34  21  60 SE8       30.59R WCI  27
MONTICELLO     CLOUDY    35  25  66 E6        30.58F WCI  30

$$





USA.gov is the U.S. government's official web portal to all federal, state and local government web resources and services.